This demonstration page uses our WeatherBlox Daily Observations layout. Learn more.

Left ArrowRight Arrow

Hourly Observations for May 15, 2017

Temp ( °F °C ) Dew Point ( °F °C ) Humidity (%) Winds ( mph kmh ) Pressure ( in mb ) Visibility ( mi km ) Precip ( " mm )
12:56 am 00:56 Clear 61 15.9 58 14.6 92 92 Calm 29.73 1007 10 16 0.00 0.00
1:56 am 01:56 Clear 62 16.8 56 13.5 81 81 SSW 5 7 29.73 1007 10 16 0.00 0.00
2:56 am 02:56 Clear 63 17.1 58 14.4 84 84 Calm 29.73 1007 10 16 0.00 0.00
3:56 am 03:56 Clear 59 15.2 57 13.7 91 91 Calm 29.74 1007 10 16 0.00 0.00
4:56 am 04:56 Clear 57 13.9 55 12.9 94 94 Calm 29.75 1007 10 16 0.00 0.00
5:56 am 05:56 Clear 59 15 58 14.4 96 96 Calm 29.76 1008 10 16 0.00 0.00
6:56 am 06:56 Sunny 60 15.5 59 14.9 96 96 S 3 6 29.76 1008 10 16 0.00 0.00
7:56 am 07:56 Mostly Sunny 69 20.5 64 17.9 85 85 SE 6 9 29.77 1008 10 16 0.00 0.00
8:56 am 08:56 Mostly Sunny 71 21.9 65 18.3 80 80 SE 8 13 29.77 1008 10 16 0.00 0.00
9:56 am 09:56 Sunny 77 24.8 64 17.5 64 64 S 13 20 29.74 1007 10 16 0.00 0.00
10:56 am 10:56 Sunny 81 27 64 18 58 58 S 9 15 29.73 1007 10 16 0.00 0.00
11:56 am 11:56 Mostly Cloudy 83 28.6 64 17.7 52 52 SSE 10 17 29.73 1007 10 16 0.00 0.00
12:56 pm 12:56 Mostly Sunny 87 30.7 63 17.4 45 45 S 10 17 29.72 1006 10 16 0.00 0.00
1:56 pm 13:56 Sunny 90 32.3 58 14.4 34 34 S 12 19 29.65 1004 10 16 0.00 0.00
2:56 pm 14:56 Sunny 92 33.4 59 14.9 33 33 S 13 20 29.65 1004 10 16 0.00 0.00
3:22 pm 15:22 Sunny 91 33 59 15 34 34 SSW 15 24 29.62 1003 10 16 0.00 0.00
3:56 pm 15:56 Mostly Sunny 92 33.6 58 14.6 32 32 SSW 9 15 29.62 1003 10 16 0.00 0.00
4:56 pm 16:56 Sunny 90 32.2 62 16.5 39 39 S 14 22 29.59 1002 10 16 0.00 0.00
5:56 pm 17:56 Sunny 90 32.2 60 15.6 37 37 S 16 26 29.59 1002 10 16 0.00 0.00
6:56 pm 18:56 Sunny 90 32 61 16.3 39 39 S 16 26 29.56 1001 10 16 0.00 0.00
7:56 pm 19:56 Sunny 88 31.2 59 15.2 38 38 S 14 22 29.56 1001 10 16 0.00 0.00
8:56 pm 20:56 Clear 85 29.5 63 17 47 47 S 17 28 29.61 1003 10 16 0.00 0.00
9:56 pm 21:56 Clear 83 28.4 63 17.3 51 51 S 15 24 29.64 1004 10 16 0.00 0.00
10:56 pm 22:56 Clear 81 27.2 65 18.2 58 58 SSE 12 19 29.65 1004 10 16 0.00 0.00
11:56 pm 23:56 Clear 79 26.2 65 18.6 63 63 S 12 19 29.66 1004 10 16 0.00 0.00

Powered by AerisWeather